Location: C&O Canal National Historical Park
(39.6184°N, 77.9938°W)
Time: 09:52:41
(UTC-04:00)

ISS - Visible Passes

Search period start: 25 September 2018 00:00
Search period end: 05 October 2018 00:00
Orbit: 403 x 408 km, 51.6° (Epoch: 25 September)

Date Brightness Start Highest point End Pass type
(mag) Time Alt. Az. Time Alt. Az. Time Alt. Az.
25 Sep -3.3 19:36:24 10° WSW 19:39:39 59° NW 19:42:56 10° NE visible
25 Sep -1.0 21:14:45 10° NW 21:16:42 15° NNW 21:16:50 15° NNW visible
26 Sep -1.4 20:22:06 10° WNW 20:24:36 19° NNW 20:27:05 10° NNE visible
27 Sep -2.0 19:29:37 10° W 19:32:32 28° NNW 19:35:27 10° NE visible
27 Sep -0.8 21:08:45 10° NNW 21:09:53 11° N 21:10:00 11° N visible
28 Sep -1.1 20:15:56 10° NW 20:17:40 13° NNW 20:19:24 10° NNE visible
29 Sep -1.3 19:23:12 10° WNW 19:25:29 17° NNW 19:27:47 10° NNE visible
29 Sep -0.8 21:02:29 10° N 21:02:52 10° N 21:02:52 10° N visible
30 Sep -1.0 20:09:53 10° NNW 20:10:48 11° N 20:11:41 10° N visible
01 Oct -0.9 20:55:01 10° NNW 20:55:35 11° N 20:55:35 11° N visible
02 Oct -1.1 20:03:14 10° N 20:03:54 10° N 20:04:34 10° NNE visible
03 Oct -1.1 20:47:12 10° NNW 20:48:15 14° N 20:48:15 14° N visible
04 Oct -1.3 19:55:31 10° NNW 19:56:56 12° N 19:58:15 10° NE visible
